Location: Staunton
(38.1490°N, 79.0720°W)
Time: 09:16:34
(UTC-04:00)

ISS - Pass Details

Date: 12 October 2017
Orbit: 401 x 408 km, 51.6° (Epoch: 18 October)

Event Time Altitude Azimuth Distance (km) Brightness Sun altitude
Rises 19:34:05 0° 317° (NW) 2,323 0.7 -11.0°
Reaches altitude 10° 19:36:24 10° 331° (NNW) 1,463 -0.6 -11.4°
Maximum altitude 19:39:12 25° 29° (NNE) 864 -2.4 -12.0°
Enters shadow 19:40:31 19° 66° (ENE) 1,033 -2.3 -12.2°
